Time,TemperatureF,DewpointF,PressureIn,WindDirection,WindDirectionDegrees,WindSpeedMPH,WindSpeedGustMPH,Humidity,HourlyPrecipIn,Conditions,Clouds,dailyrainin,SoftwareType,DateUTC
2013-04-16 00:00:00,47.7,38.4,30.29,ESE,106,0.0,0.0,70,0.00,CLR,CLR,0.00,WeatherDisplay:10.36,2013-04-16 04:00:00,
2013-04-16 00:03:00,47.6,38.7,30.29,ESE,106,0.0,0.0,71,0.00,CLR,CLR,0.00,WeatherDisplay:10.36,2013-04-16 04:03:00,
2013-04-16 00:08:00,47.6,38.7,30.29,ESE,106,0.0,0.0,71,0.00,CLR,CLR,0.00,WeatherDisplay:10.36,2013-04-16 04:08:00,
2013-04-16 00:13:00,47.4,38.8,30.29,ESE,106,0.0,0.0,72,0.00,CLR,CLR,0.00,WeatherDisplay:10.36,2013-04-16 04:13:00,
2013-04-16 00:18:00,47.4,38.8,30.29,ESE,106,0.0,0.0,72,0.00,CLR,CLR,0.00,WeatherDisplay:10.36,2013-04-16 04:18:00,
2013-04-16 00:23:00,47.4,38.8,30.28,ESE,106,0.0,0.0,72,0.00,CLR,CLR,0.00,WeatherDisplay:10.36,2013-04-16 04:23:00,
2013-04-16 00:28:00,47.4,38.8,30.28,ESE,106,1.2,0.0,72,0.00,CLR,CLR,0.00,WeatherDisplay:10.36,2013-04-16 04:28:00,
2013-04-16 00:33:00,47.4,38.8,30.28,ESE,106,0.0,0.0,72,0.00,CLR,CLR,0.00,WeatherDisplay:10.36,2013-04-16 04:33:00,
2013-04-16 00:38:00,47.4,38.8,30.29,ESE,106,0.0,0.0,72,0.00,CLR,CLR,0.00,WeatherDisplay:10.36,2013-04-16 04:38:00,
2013-04-16 00:43:00,47.4,38.8,30.29,ESE,106,0.0,0.0,72,0.00,CLR,CLR,0.00,WeatherDisplay:10.36,2013-04-16 04:43:00,
2013-04-16 00:48:00,47.4,38.5,30.29,SSE,154,1.2,0.0,71,0.00,CLR,CLR,0.00,WeatherDisplay:10.36,2013-04-16 04:48:00,
2013-04-16 00:53:00,47.4,38.5,30.29,SSE,154,0.0,0.0,71,0.00,CLR,CLR,0.00,WeatherDisplay:10.36,2013-04-16 04:53:00,
2013-04-16 00:58:00,47.4,38.5,30.29,SSE,154,0.0,0.0,71,0.00,CLR,CLR,0.00,WeatherDisplay:10.36,2013-04-16 04:58:00,
2013-04-16 01:03:00,47.4,38.5,30.29,SSE,154,0.0,0.0,71,0.00,CLR,CLR,0.00,WeatherDisplay:10.36,2013-04-16 05:03:00,
2013-04-16 01:08:00,47.4,38.5,30.29,SSE,154,0.0,0.0,71,0.00,CLR,CLR,0.00,WeatherDisplay:10.36,2013-04-16 05:08:00,
2013-04-16 01:13:00,47.6,38.7,30.29,SSE,154,0.0,0.0,71,0.00,CLR,CLR,0.00,WeatherDisplay:10.36,2013-04-16 05:13:00,
2013-04-16 01:18:00,47.6,38.7,30.28,SSE,154,0.0,0.0,71,0.00,CLR,CLR,0.00,WeatherDisplay:10.36,2013-04-16 05:18:00,
2013-04-16 01:23:00,47.6,39.0,30.28,SSE,154,0.0,0.0,72,0.00,CLR,CLR,0.00,WeatherDisplay:10.36,2013-04-16 05:23:00,
2013-04-16 01:28:00,47.6,39.0,30.28,SSE,154,0.0,0.0,72,0.00,CLR,CLR,0.00,WeatherDisplay:10.36,2013-04-16 05:28:00,
2013-04-16 01:33:00,47.6,39.0,30.28,SSE,154,0.0,0.0,72,0.00,CLR,CLR,0.00,WeatherDisplay:10.36,2013-04-16 05:33:00,
2013-04-16 01:38:00,47.6,39.0,30.28,SSE,154,0.0,0.0,72,0.00,CLR,CLR,0.00,WeatherDisplay:10.36,2013-04-16 05:38:00,
2013-04-16 01:52:00,47.6,39.4,30.28,SSE,154,0.0,0.0,73,0.00,CLR,CLR,0.00,WeatherDisplay:10.36,2013-04-16 05:52:00,
2013-04-16 01:57:00,47.6,39.4,30.28,SSE,154,0.0,0.0,73,0.00,CLR,CLR,0.00,WeatherDisplay:10.36,2013-04-16 05:57:00,
2013-04-16 02:02:00,47.6,39.4,30.28,SSE,154,0.0,0.0,73,0.00,CLR,CLR,0.00,WeatherDisplay:10.36,2013-04-16 06:02:00,
2013-04-16 02:07:00,47.6,39.4,30.28,SSE,154,0.0,0.0,73,0.00,CLR,CLR,0.00,WeatherDisplay:10.36,2013-04-16 06:07:00,
2013-04-16 02:12:00,47.6,39.4,30.28,SSE,154,0.0,0.0,73,0.00,CLR,CLR,0.00,WeatherDisplay:10.36,2013-04-16 06:12:00,
2013-04-16 02:18:00,47.6,39.4,30.28,SSE,154,0.0,0.0,73,0.00,CLR,CLR,0.00,WeatherDisplay:10.36,2013-04-16 06:18:00,
2013-04-16 02:23:00,47.6,39.4,30.28,SSE,154,0.0,0.0,73,0.00,CLR,CLR,0.00,WeatherDisplay:10.36,2013-04-16 06:23:00,
2013-04-16 02:28:00,47.4,39.5,30.28,SSE,154,0.0,0.0,74,0.00,CLR,CLR,0.00,WeatherDisplay:10.36,2013-04-16 06:28:00,
2013-04-16 02:33:00,47.4,39.5,30.28,SSE,154,0.0,0.0,74,0.00,CLR,CLR,0.00,WeatherDisplay:10.36,2013-04-16 06:33:00,
2013-04-16 02:38:00,47.4,39.5,30.28,SSE,154,0.0,0.0,74,0.00,CLR,CLR,0.00,WeatherDisplay:10.36,2013-04-16 06:38:00,
2013-04-16 02:43:00,47.4,39.5,30.28,SSE,154,0.0,0.0,74,0.00,CLR,CLR,0.00,WeatherDisplay:10.36,2013-04-16 06:43:00,
2013-04-16 02:48:00,47.4,39.5,30.27,SSE,154,0.0,0.0,74,0.00,CLR,CLR,0.00,WeatherDisplay:10.36,2013-04-16 06:48:00,
2013-04-16 02:54:00,47.4,39.5,30.28,SSE,154,0.0,0.0,74,0.00,CLR,CLR,0.00,WeatherDisplay:10.36,2013-04-16 06:54:00,
2013-04-16 02:59:00,47.4,39.5,30.27,SSE,154,0.0,0.0,74,0.00,CLR,CLR,0.00,WeatherDisplay:10.36,2013-04-16 06:59:00,
2013-04-16 03:04:00,47.4,39.5,30.27,SSE,154,0.0,0.0,74,0.00,CLR,CLR,0.00,WeatherDisplay:10.36,2013-04-16 07:04:00,
2013-04-16 03:09:00,47.3,39.4,30.27,SSE,154,0.0,0.0,74,0.00,CLR,CLR,0.00,WeatherDisplay:10.36,2013-04-16 07:09:00,
2013-04-16 03:14:00,47.3,39.8,30.27,SSE,154,0.0,0.0,75,0.00,CLR,CLR,0.00,WeatherDisplay:10.36,2013-04-16 07:14:00,
2013-04-16 03:19:00,47.3,39.8,30.27,SSE,154,0.0,0.0,75,0.00,CLR,CLR,0.00,WeatherDisplay:10.36,2013-04-16 07:19:00,
2013-04-16 03:24:00,47.3,39.8,30.27,SSE,154,0.0,0.0,75,0.00,CLR,CLR,0.00,WeatherDisplay:10.36,2013-04-16 07:24:00,
2013-04-16 03:29:00,47.1,39.6,30.27,SSE,154,0.0,0.0,75,0.00,CLR,CLR,0.00,WeatherDisplay:10.36,2013-04-16 07:29:00,
2013-04-16 03:34:00,47.1,39.6,30.27,SSE,154,0.0,0.0,75,0.00,CLR,CLR,0.00,WeatherDisplay:10.36,2013-04-16 07:34:00,
2013-04-16 03:39:00,47.1,39.6,30.27,SSE,154,0.0,0.0,75,0.00,CLR,CLR,0.00,WeatherDisplay:10.36,2013-04-16 07:39:00,
2013-04-16 03:44:00,47.1,39.6,30.27,SSE,154,0.0,0.0,75,0.00,CLR,CLR,0.00,WeatherDisplay:10.36,2013-04-16 07:44:00,
2013-04-16 03:50:00,47.1,39.6,30.27,SSE,154,0.0,0.0,75,0.00,CLR,CLR,0.00,WeatherDisplay:10.36,2013-04-16 07:50:00,
2013-04-16 03:55:00,47.1,39.9,30.27,SSE,154,0.0,0.0,76,0.00,CLR,CLR,0.00,WeatherDisplay:10.36,2013-04-16 07:55:00,
2013-04-16 04:00:00,47.1,39.6,30.27,SSE,154,0.0,0.0,75,0.00,CLR,CLR,0.00,WeatherDisplay:10.36,2013-04-16 08:00:00,
2013-04-16 04:05:00,47.1,39.9,30.27,SSE,154,0.0,0.0,76,0.00,CLR,CLR,0.00,WeatherDisplay:10.36,2013-04-16 08:05:00,
2013-04-16 04:10:00,47.1,39.9,30.27,SSE,154,0.0,0.0,76,0.00,CLR,CLR,0.00,WeatherDisplay:10.36,2013-04-16 08:10:00,
2013-04-16 04:16:00,47.1,39.9,30.27,SSE,154,0.0,0.0,76,0.00,CLR,CLR,0.00,WeatherDisplay:10.36,2013-04-16 08:16:00,
2013-04-16 04:21:00,47.0,39.8,30.27,SSE,154,0.0,0.0,76,0.00,CLR,CLR,0.00,WeatherDisplay:10.36,2013-04-16 08:21:00,
2013-04-16 04:26:00,47.0,39.8,30.27,SSE,154,0.0,0.0,76,0.00,CLR,CLR,0.00,WeatherDisplay:10.36,2013-04-16 08:26:00,
2013-04-16 04:31:00,47.0,39.8,30.27,SSE,154,0.0,0.0,76,0.00,CLR,CLR,0.00,WeatherDisplay:10.36,2013-04-16 08:31:00,
2013-04-16 04:36:00,47.0,39.8,30.26,SSE,154,0.0,0.0,76,0.00,CLR,CLR,0.00,WeatherDisplay:10.36,2013-04-16 08:36:00,
2013-04-16 04:41:00,47.0,39.8,30.27,SSE,154,0.0,0.0,76,0.00,CLR,CLR,0.00,WeatherDisplay:10.36,2013-04-16 08:41:00,
2013-04-16 04:46:00,47.0,39.8,30.27,SSE,154,0.0,0.0,76,0.00,CLR,CLR,0.00,WeatherDisplay:10.36,2013-04-16 08:46:00,
2013-04-16 04:51:00,47.0,39.8,30.27,SSE,154,0.0,0.0,76,0.00,CLR,CLR,0.00,WeatherDisplay:10.36,2013-04-16 08:51:00,
2013-04-16 04:56:00,47.0,39.8,30.27,SSE,154,0.0,0.0,76,0.00,CLR,CLR,0.00,WeatherDisplay:10.36,2013-04-16 08:56:00,
2013-04-16 05:01:00,47.0,39.8,30.27,SSE,154,0.0,0.0,76,0.00,CLR,CLR,0.00,WeatherDisplay:10.36,2013-04-16 09:01:00,
2013-04-16 05:06:00,47.0,39.8,30.26,SSE,154,0.0,0.0,76,0.00,CLR,CLR,0.00,WeatherDisplay:10.36,2013-04-16 09:06:00,
2013-04-16 05:11:00,47.1,39.9,30.27,SSE,154,0.0,0.0,76,0.00,CLR,CLR,0.00,WeatherDisplay:10.36,2013-04-16 09:11:00,
2013-04-16 05:16:00,47.1,39.9,30.27,SSE,154,0.0,0.0,76,0.00,CLR,CLR,0.00,WeatherDisplay:10.36,2013-04-16 09:16:00,
2013-04-16 05:21:00,47.1,39.9,30.27,SSE,154,0.0,0.0,76,0.00,CLR,CLR,0.00,WeatherDisplay:10.36,2013-04-16 09:21:00,
2013-04-16 05:26:00,47.1,39.9,30.27,SSE,154,0.0,0.0,76,0.00,CLR,CLR,0.00,WeatherDisplay:10.36,2013-04-16 09:26:00,
2013-04-16 05:31:00,47.3,40.5,30.26,SSE,154,0.0,0.0,77,0.00,CLR,CLR,0.00,WeatherDisplay:10.36,2013-04-16 09:31:00,
2013-04-16 05:36:00,47.3,40.5,30.26,SSE,154,0.0,0.0,77,0.00,CLR,CLR,0.00,WeatherDisplay:10.36,2013-04-16 09:36:00,
2013-04-16 05:41:00,47.3,40.5,30.26,SSE,154,0.0,0.0,77,0.00,CLR,CLR,0.00,WeatherDisplay:10.36,2013-04-16 09:41:00,
2013-04-16 05:47:00,47.3,40.5,30.26,SSE,154,0.0,0.0,77,0.00,CLR,CLR,0.00,WeatherDisplay:10.36,2013-04-16 09:47:00,
2013-04-16 05:52:00,47.4,40.6,30.26,SSE,154,0.0,0.0,77,0.00,CLR,CLR,0.00,WeatherDisplay:10.36,2013-04-16 09:52:00,
2013-04-16 05:57:00,47.4,40.6,30.26,SSE,154,0.0,0.0,77,0.00,CLR,CLR,0.00,WeatherDisplay:10.36,2013-04-16 09:57:00,
2013-04-16 06:02:00,47.4,40.6,30.26,SSE,154,0.0,0.0,77,0.00,CLR,CLR,0.00,WeatherDisplay:10.36,2013-04-16 10:02:00,
2013-04-16 06:07:00,47.4,40.6,30.26,SSE,154,0.0,0.0,77,0.00,CLR,CLR,0.00,WeatherDisplay:10.36,2013-04-16 10:07:00,
2013-04-16 06:12:00,47.6,40.7,30.27,SSE,154,0.0,0.0,77,0.00,CLR,CLR,0.00,WeatherDisplay:10.36,2013-04-16 10:12:00,
2013-04-16 06:17:00,47.6,40.7,30.27,SSE,154,0.0,0.0,77,0.00,CLR,CLR,0.00,WeatherDisplay:10.36,2013-04-16 10:17:00,
2013-04-16 06:22:00,47.6,40.7,30.27,SSE,154,0.0,0.0,77,0.00,CLR,CLR,0.00,WeatherDisplay:10.36,2013-04-16 10:22:00,
2013-04-16 06:28:00,47.7,40.5,30.27,SSE,154,0.0,0.0,76,0.00,CLR,CLR,0.00,WeatherDisplay:10.36,2013-04-16 10:28:00,
2013-04-16 06:33:00,47.7,40.5,30.27,SSE,154,0.0,0.0,76,0.00,CLR,CLR,0.00,WeatherDisplay:10.36,2013-04-16 10:33:00,
2013-04-16 06:38:00,47.7,40.5,30.27,SSE,154,0.0,0.0,76,0.00,CLR,CLR,0.00,WeatherDisplay:10.36,2013-04-16 10:38:00,
2013-04-16 06:43:00,47.7,40.5,30.27,SSE,154,0.0,0.0,76,0.00,CLR,CLR,0.00,WeatherDisplay:10.36,2013-04-16 10:43:00,
2013-04-16 06:48:00,47.9,41.0,30.27,SSE,154,0.0,0.0,77,0.00,CLR,CLR,0.00,WeatherDisplay:10.36,2013-04-16 10:48:00,
2013-04-16 06:53:00,47.9,41.0,30.27,SSE,154,0.0,0.0,77,0.00,CLR,CLR,0.00,WeatherDisplay:10.36,2013-04-16 10:53:00,
2013-04-16 06:58:00,48.0,41.1,30.27,SSE,154,0.0,0.0,77,0.00,CLR,CLR,0.00,WeatherDisplay:10.36,2013-04-16 10:58:00,
2013-04-16 07:04:00,48.0,41.1,30.28,SSE,154,0.0,0.0,77,0.00,CLR,CLR,0.00,WeatherDisplay:10.36,2013-04-16 11:04:00,
2013-04-16 07:09:00,48.2,41.3,30.28,SSE,154,0.0,0.0,77,0.00,CLR,CLR,0.00,WeatherDisplay:10.36,2013-04-16 11:09:00,
2013-04-16 07:14:00,48.3,41.4,30.27,SSE,154,0.0,0.0,77,0.00,CLR,CLR,0.00,WeatherDisplay:10.36,2013-04-16 11:14:00,
2013-04-16 07:19:00,48.5,41.6,30.27,SSE,154,0.0,0.0,77,0.00,CLR,CLR,0.00,WeatherDisplay:10.36,2013-04-16 11:19:00,
2013-04-16 07:24:00,48.6,41.7,30.28,SSE,154,0.0,0.0,77,0.00,CLR,CLR,0.00,WeatherDisplay:10.36,2013-04-16 11:24:00,
2013-04-16 07:29:00,48.8,41.9,30.28,SSE,154,0.0,0.0,77,0.00,CLR,CLR,0.00,WeatherDisplay:10.36,2013-04-16 11:29:00,
2013-04-16 07:35:00,49.1,42.2,30.27,SSE,154,0.0,0.0,77,0.00,CLR,CLR,0.00,WeatherDisplay:10.36,2013-04-16 11:35:00,
2013-04-16 07:40:00,49.3,42.4,30.27,SSE,154,0.0,1.0,77,0.00,CLR,CLR,0.00,WeatherDisplay:10.36,2013-04-16 11:40:00,
2013-04-16 07:45:00,49.6,42.3,30.27,SSE,154,0.0,0.0,76,0.00,CLR,CLR,0.00,WeatherDisplay:10.36,2013-04-16 11:45:00,
2013-04-16 07:50:00,49.8,42.5,30.27,SSE,154,0.0,0.0,76,0.00,CLR,CLR,0.00,WeatherDisplay:10.36,2013-04-16 11:50:00,
2013-04-16 07:55:00,50.1,42.8,30.27,SSE,154,0.0,0.0,76,0.00,CLR,CLR,0.00,WeatherDisplay:10.36,2013-04-16 11:55:00,
2013-04-16 08:01:00,50.2,42.9,30.27,SSE,154,0.0,0.0,76,0.00,CLR,CLR,0.00,WeatherDisplay:10.36,2013-04-16 12:01:00,
2013-04-16 08:06:00,50.7,43.4,30.27,SSE,154,0.0,0.0,76,0.00,CLR,CLR,0.00,WeatherDisplay:10.36,2013-04-16 12:06:00,
2013-04-16 08:11:00,51.0,43.4,30.27,SSE,154,0.0,0.0,75,0.00,CLR,CLR,0.00,WeatherDisplay:10.36,2013-04-16 12:11:00,
2013-04-16 08:16:00,51.4,43.4,30.27,East,101,1.2,0.0,74,0.00,CLR,CLR,0.00,WeatherDisplay:10.36,2013-04-16 12:16:00,
2013-04-16 08:21:00,51.7,43.7,30.27,ESE,117,2.3,2.3,74,0.00,CLR,CLR,0.00,WeatherDisplay:10.36,2013-04-16 12:21:00,
2013-04-16 08:26:00,52.5,44.4,30.27,ENE,75,0.0,0.2,74,0.00,CLR,CLR,0.00,WeatherDisplay:10.36,2013-04-16 12:26:00,
2013-04-16 08:31:00,52.9,44.1,30.27,ENE,75,2.3,2.3,72,0.00,CLR,CLR,0.00,WeatherDisplay:10.36,2013-04-16 12:31:00,
2013-04-16 08:36:00,53.3,44.5,30.26,East,81,1.2,1.2,72,0.00,CLR,CLR,0.00,WeatherDisplay:10.36,2013-04-16 12:36:00,
2013-04-16 08:41:00,53.6,44.4,30.26,East,81,0.0,0.0,71,0.00,CLR,CLR,0.00,WeatherDisplay:10.36,2013-04-16 12:41:00,
2013-04-16 08:46:00,53.9,44.7,30.26,East,83,1.2,1.2,71,0.00,CLR,CLR,0.00,WeatherDisplay:10.36,2013-04-16 12:46:00,
2013-04-16 08:51:00,54.5,44.5,30.26,East,83,1.2,1.2,69,0.00,CLR,CLR,0.00,WeatherDisplay:10.36,2013-04-16 12:51:00,
2013-04-16 08:56:00,55.0,44.6,30.26,East,83,1.2,0.0,68,0.00,CLR,CLR,0.00,WeatherDisplay:10.36,2013-04-16 12:56:00,
2013-04-16 09:01:00,54.7,44.3,30.26,East,83,0.0,0.0,68,0.00,CLR,CLR,0.00,WeatherDisplay:10.36,2013-04-16 13:01:00,
2013-04-16 09:07:00,54.5,44.5,30.26,East,82,0.0,0.0,69,0.00,CLR,CLR,0.00,WeatherDisplay:10.36,2013-04-16 13:07:00,
2013-04-16 09:12:00,54.5,44.5,30.26,East,82,0.0,0.0,69,0.00,CLR,CLR,0.00,WeatherDisplay:10.36,2013-04-16 13:12:00,
2013-04-16 09:17:00,54.5,44.5,30.27,East,82,2.3,2.3,69,0.00,CLR,CLR,0.00,WeatherDisplay:10.36,2013-04-16 13:17:00,
2013-04-16 09:22:00,54.7,44.7,30.27,East,82,0.0,0.0,69,0.00,CLR,CLR,0.00,WeatherDisplay:10.36,2013-04-16 13:22:00,
2013-04-16 09:27:00,54.8,44.8,30.27,ENE,67,1.2,0.0,69,0.00,CLR,CLR,0.00,WeatherDisplay:10.36,2013-04-16 13:27:00,
2013-04-16 09:32:00,55.1,45.1,30.27,ENE,67,2.3,2.3,69,0.00,CLR,CLR,0.00,WeatherDisplay:10.36,2013-04-16 13:32:00,
2013-04-16 09:37:00,55.3,45.3,30.27,ENE,67,0.0,0.0,69,0.00,CLR,CLR,0.00,WeatherDisplay:10.36,2013-04-16 13:37:00,
2013-04-16 09:42:00,55.7,45.3,30.27,East,80,2.3,0.0,68,0.00,CLR,CLR,0.00,WeatherDisplay:10.36,2013-04-16 13:42:00,
2013-04-16 09:47:00,56.0,45.2,30.27,East,79,2.3,2.3,67,0.00,CLR,CLR,0.00,WeatherDisplay:10.36,2013-04-16 13:47:00,
2013-04-16 09:53:00,56.3,45.5,30.27,East,80,2.3,2.3,67,0.00,CLR,CLR,0.00,WeatherDisplay:10.36,2013-04-16 13:53:00,
2013-04-16 09:58:00,56.5,45.7,30.27,ESE,113,0.0,0.0,67,0.00,CLR,CLR,0.00,WeatherDisplay:10.36,2013-04-16 13:58:00,
2013-04-16 10:03:00,56.7,45.5,30.26,ENE,73,2.3,0.0,66,0.00,CLR,CLR,0.00,WeatherDisplay:10.36,2013-04-16 14:03:00,
2013-04-16 10:08:00,56.7,45.5,30.26,East,86,2.3,2.3,66,0.00,CLR,CLR,0.00,WeatherDisplay:10.36,2013-04-16 14:08:00,
2013-04-16 10:13:00,57.2,45.5,30.26,SSW,203,2.3,2.3,65,0.00,CLR,CLR,0.00,WeatherDisplay:10.36,2013-04-16 14:13:00,
2013-04-16 10:18:00,57.8,46.1,30.26,ENE,67,3.5,3.5,65,0.00,CLR,CLR,0.00,WeatherDisplay:10.36,2013-04-16 14:18:00,
2013-04-16 10:23:00,57.8,45.7,30.26,South,174,3.5,0.0,64,0.00,CLR,CLR,0.00,WeatherDisplay:10.36,2013-04-16 14:23:00,
2013-04-16 10:28:00,58.1,46.0,30.26,ENE,76,2.0,2.0,64,0.00,CLR,CLR,0.00,WeatherDisplay:10.36,2013-04-16 14:28:00,
2013-04-16 10:33:00,58.0,46.3,30.26,ENE,62,2.0,2.0,65,0.00,CLR,CLR,0.00,WeatherDisplay:10.36,2013-04-16 14:33:00,
2013-04-16 10:38:00,58.0,46.7,30.26,ENE,69,0.0,0.0,66,0.00,CLR,CLR,0.00,WeatherDisplay:10.36,2013-04-16 14:38:00,
2013-04-16 10:43:00,58.4,46.7,30.26,ENE,65,3.0,3.0,65,0.00,CLR,CLR,0.00,WeatherDisplay:10.36,2013-04-16 14:43:00,
2013-04-16 10:48:00,58.7,47.0,30.25,SE,129,1.2,0.0,65,0.00,CLR,CLR,0.00,WeatherDisplay:10.36,2013-04-16 14:48:00,
2013-04-16 10:53:00,59.3,46.7,30.25,NE,56,2.3,2.3,63,0.00,CLR,CLR,0.00,WeatherDisplay:10.36,2013-04-16 14:53:00,
2013-04-16 10:58:00,59.2,46.6,30.25,ENE,72,3.5,3.5,63,0.00,CLR,CLR,0.00,WeatherDisplay:10.36,2013-04-16 14:58:00,
2013-04-16 11:04:00,59.5,46.9,30.24,ENE,72,3.5,3.5,63,0.00,CLR,CLR,0.00,WeatherDisplay:10.36,2013-04-16 15:04:00,
2013-04-16 11:09:00,60.4,47.7,30.24,ENE,63,3.5,3.5,63,0.00,CLR,CLR,0.00,WeatherDisplay:10.36,2013-04-16 15:09:00,
2013-04-16 11:14:00,61.0,47.9,30.24,SE,132,1.2,1.2,62,0.00,CLR,CLR,0.00,WeatherDisplay:10.36,2013-04-16 15:14:00,
2013-04-16 11:19:00,61.5,47.9,30.24,East,83,3.0,3.0,61,0.00,CLR,CLR,0.00,WeatherDisplay:10.36,2013-04-16 15:19:00,
2013-04-16 11:24:00,61.3,48.2,30.24,ENE,66,4.0,4.0,62,0.00,CLR,CLR,0.00,WeatherDisplay:10.36,2013-04-16 15:24:00,
2013-04-16 11:30:00,60.7,47.6,30.23,ENE,75,3.5,3.5,62,0.00,CLR,CLR,0.00,WeatherDisplay:10.36,2013-04-16 15:30:00,
2013-04-16 11:35:00,60.9,48.2,30.23,SSE,152,4.0,4.0,63,0.00,CLR,CLR,0.00,WeatherDisplay:10.36,2013-04-16 15:35:00,
2013-04-16 11:40:00,61.3,48.2,30.23,ENE,77,3.0,5.0,62,0.00,CLR,CLR,0.00,WeatherDisplay:10.36,2013-04-16 15:40:00,
2013-04-16 11:45:00,62.1,48.9,30.23,SE,128,0.0,3.0,62,0.00,CLR,CLR,0.00,WeatherDisplay:10.36,2013-04-16 15:45:00,
2013-04-16 11:50:00,62.3,48.2,30.22,East,99,0.0,5.0,60,0.00,CLR,CLR,0.00,WeatherDisplay:10.36,2013-04-16 15:50:00,
2013-04-16 11:55:00,62.3,48.2,30.22,ENE,68,3.5,3.5,60,0.00,CLR,CLR,0.00,WeatherDisplay:10.36,2013-04-16 15:55:00,
2013-04-16 12:01:00,62.0,48.8,30.21,ENE,70,3.5,3.5,62,0.00,CLR,CLR,0.00,WeatherDisplay:10.36,2013-04-16 16:01:00,
2013-04-16 12:06:00,62.6,49.4,30.20,ENE,74,2.3,2.3,62,0.00,CLR,CLR,0.00,WeatherDisplay:10.36,2013-04-16 16:06:00,
2013-04-16 12:11:00,63.2,48.6,30.20,ENE,73,1.2,1.2,59,0.00,CLR,CLR,0.00,WeatherDisplay:10.36,2013-04-16 16:11:00,
2013-04-16 12:16:00,63.2,48.6,30.20,ENE,70,3.5,3.5,59,0.00,CLR,CLR,0.00,WeatherDisplay:10.36,2013-04-16 16:16:00,
2013-04-16 12:21:00,63.1,49.0,30.20,East,82,2.3,0.0,60,0.00,CLR,CLR,0.00,WeatherDisplay:10.36,2013-04-16 16:21:00,
2013-04-16 12:26:00,62.9,48.3,30.20,ENE,68,4.6,4.6,59,0.00,CLR,CLR,0.00,WeatherDisplay:10.36,2013-04-16 16:26:00,
2013-04-16 12:31:00,62.1,48.0,30.20,ENE,68,3.5,3.5,60,0.00,CLR,CLR,0.00,WeatherDisplay:10.36,2013-04-16 16:31:00,
2013-04-16 12:36:00,62.3,49.1,30.20,ENE,70,4.0,4.0,62,0.00,CLR,CLR,0.00,WeatherDisplay:10.36,2013-04-16 16:36:00,
2013-04-16 12:41:00,62.6,49.4,30.20,East,79,3.5,3.5,62,0.00,CLR,CLR,0.00,WeatherDisplay:10.36,2013-04-16 16:41:00,
2013-04-16 12:47:00,62.9,48.8,30.20,ENE,78,4.6,4.6,60,0.00,CLR,CLR,0.00,WeatherDisplay:10.36,2013-04-16 16:47:00,
2013-04-16 12:52:00,62.7,49.1,30.20,SE,139,3.5,3.5,61,0.00,CLR,CLR,0.00,WeatherDisplay:10.36,2013-04-16 16:52:00,
2013-04-16 12:57:00,63.1,49.4,30.19,East,81,4.6,4.6,61,0.00,CLR,CLR,0.00,WeatherDisplay:10.36,2013-04-16 16:57:00,
2013-04-16 13:02:00,63.4,49.7,30.19,ENE,73,4.6,4.6,61,0.00,CLR,CLR,0.00,WeatherDisplay:10.36,2013-04-16 17:02:00,
2013-04-16 13:07:00,63.2,49.1,30.19,East,82,3.5,3.5,60,0.00,CLR,CLR,0.00,WeatherDisplay:10.36,2013-04-16 17:07:00,
2013-04-16 13:13:00,63.2,49.5,30.19,East,82,3.5,3.5,61,0.00,CLR,CLR,0.00,WeatherDisplay:10.36,2013-04-16 17:13:00,
2013-04-16 13:18:00,63.1,49.4,30.19,South,188,4.0,4.0,61,0.00,CLR,CLR,0.00,WeatherDisplay:10.36,2013-04-16 17:18:00,
2013-04-16 13:23:00,62.9,49.2,30.18,East,88,3.5,3.5,61,0.00,CLR,CLR,0.00,WeatherDisplay:10.36,2013-04-16 17:23:00,
2013-04-16 13:28:00,62.4,49.2,30.18,ENE,69,3.5,3.5,62,0.00,CLR,CLR,0.00,WeatherDisplay:10.36,2013-04-16 17:28:00,
2013-04-16 13:33:00,61.8,48.6,30.18,ENE,74,3.5,3.5,62,0.00,CLR,CLR,0.00,WeatherDisplay:10.36,2013-04-16 17:33:00,
2013-04-16 13:38:00,61.3,49.4,30.18,NE,49,3.0,3.0,65,0.00,CLR,CLR,0.00,WeatherDisplay:10.36,2013-04-16 17:38:00,
2013-04-16 13:43:00,61.2,49.3,30.19,ENE,64,2.3,2.3,65,0.00,CLR,CLR,0.00,WeatherDisplay:10.36,2013-04-16 17:43:00,
2013-04-16 13:49:00,61.2,49.3,30.18,ENE,64,0.0,0.2,65,0.00,CLR,CLR,0.00,WeatherDisplay:10.36,2013-04-16 17:49:00,
2013-04-16 13:54:00,61.0,49.1,30.18,ESE,105,2.3,2.3,65,0.00,CLR,CLR,0.00,WeatherDisplay:10.36,2013-04-16 17:54:00,
2013-04-16 13:59:00,61.0,49.1,30.18,East,89,2.3,2.3,65,0.00,CLR,CLR,0.00,WeatherDisplay:10.36,2013-04-16 17:59:00,
2013-04-16 14:04:00,61.0,49.1,30.18,East,82,2.0,2.0,65,0.00,CLR,CLR,0.00,WeatherDisplay:10.36,2013-04-16 18:04:00,
2013-04-16 14:09:00,60.7,49.3,30.18,East,82,5.8,5.8,66,0.00,CLR,CLR,0.00,WeatherDisplay:10.36,2013-04-16 18:09:00,
2013-04-16 14:14:00,60.9,49.9,30.17,ENE,73,3.5,3.5,67,0.00,CLR,CLR,0.00,WeatherDisplay:10.36,2013-04-16 18:14:00,
2013-04-16 14:19:00,61.3,49.8,30.17,ENE,66,3.5,3.5,66,0.00,CLR,CLR,0.00,WeatherDisplay:10.36,2013-04-16 18:19:00,
2013-04-16 14:24:00,61.8,50.3,30.17,ESE,103,2.0,2.0,66,0.00,CLR,CLR,0.00,WeatherDisplay:10.36,2013-04-16 18:24:00,
2013-04-16 14:30:00,62.0,50.1,30.17,ENE,77,2.3,0.0,65,0.00,CLR,CLR,0.00,WeatherDisplay:10.36,2013-04-16 18:30:00,
2013-04-16 14:35:00,62.7,50.3,30.16,East,87,2.0,4.0,64,0.00,CLR,CLR,0.00,WeatherDisplay:10.36,2013-04-16 18:35:00,
2013-04-16 14:40:00,62.6,50.7,30.17,East,83,0.0,5.0,65,0.00,CLR,CLR,0.00,WeatherDisplay:10.36,2013-04-16 18:40:00,
2013-04-16 14:45:00,62.7,50.3,30.16,ENE,73,3.5,3.5,64,0.00,CLR,CLR,0.00,WeatherDisplay:10.36,2013-04-16 18:45:00,
2013-04-16 14:50:00,62.9,50.5,30.15,ENE,60,1.2,1.2,64,0.00,CLR,CLR,0.00,WeatherDisplay:10.36,2013-04-16 18:50:00,
2013-04-16 14:56:00,62.4,50.5,30.15,ENE,64,0.0,0.0,65,0.00,CLR,CLR,0.00,WeatherDisplay:10.36,2013-04-16 18:56:00,
2013-04-16 15:01:00,62.6,50.7,30.15,NE,56,3.5,3.5,65,0.00,CLR,CLR,0.00,WeatherDisplay:10.36,2013-04-16 19:01:00,
2013-04-16 15:06:00,62.4,50.5,30.15,NE,56,2.3,0.0,65,0.00,CLR,CLR,0.00,WeatherDisplay:10.36,2013-04-16 19:06:00,
2013-04-16 15:11:00,62.4,50.9,30.14,ENE,60,3.5,3.5,66,0.00,CLR,CLR,0.00,WeatherDisplay:10.36,2013-04-16 19:11:00,
2013-04-16 15:16:00,62.9,51.0,30.14,ENE,60,2.3,2.3,65,0.00,CLR,CLR,0.00,WeatherDisplay:10.36,2013-04-16 19:16:00,
2013-04-16 15:21:00,62.7,50.8,30.14,SE,133,2.3,0.0,65,0.00,CLR,CLR,0.00,WeatherDisplay:10.36,2013-04-16 19:21:00,
2013-04-16 15:26:00,62.7,51.2,30.14,ENE,63,1.2,1.2,66,0.00,CLR,CLR,0.00,WeatherDisplay:10.36,2013-04-16 19:26:00,
2013-04-16 15:32:00,63.2,52.1,30.14,SSE,167,1.2,0.0,67,0.00,CLR,CLR,0.00,WeatherDisplay:10.36,2013-04-16 19:32:00,
2013-04-16 15:37:00,63.5,51.5,30.14,SSE,153,1.2,0.0,65,0.00,CLR,CLR,0.00,WeatherDisplay:10.36,2013-04-16 19:37:00,
2013-04-16 15:42:00,63.4,51.4,30.15,ENE,65,4.0,4.0,65,0.00,CLR,CLR,0.00,WeatherDisplay:10.36,2013-04-16 19:42:00,
2013-04-16 15:47:00,62.9,51.4,30.14,ENE,65,2.3,0.0,66,0.00,CLR,CLR,0.00,WeatherDisplay:10.36,2013-04-16 19:47:00,
2013-04-16 15:52:00,62.6,51.9,30.14,ENE,59,3.0,3.0,68,0.00,CLR,CLR,0.00,WeatherDisplay:10.36,2013-04-16 19:52:00,
2013-04-16 15:57:00,62.4,51.3,30.14,ENE,59,3.0,3.0,67,0.00,CLR,CLR,0.00,WeatherDisplay:10.36,2013-04-16 19:57:00,
2013-04-16 16:02:00,62.1,51.4,30.14,ENE,60,2.3,2.3,68,0.00,CLR,CLR,0.00,WeatherDisplay:10.36,2013-04-16 20:02:00,
2013-04-16 16:08:00,62.0,51.7,30.13,ENE,60,0.0,0.0,69,0.00,CLR,CLR,0.00,WeatherDisplay:10.36,2013-04-16 20:08:00,
2013-04-16 16:13:00,62.1,51.4,30.13,ENE,60,2.3,2.3,68,0.00,CLR,CLR,0.00,WeatherDisplay:10.36,2013-04-16 20:13:00,
2013-04-16 16:18:00,62.0,51.3,30.12,ENE,60,2.3,2.3,68,0.00,CLR,CLR,0.00,WeatherDisplay:10.36,2013-04-16 20:18:00,
2013-04-16 16:23:00,62.0,51.3,30.12,ENE,60,3.5,3.5,68,0.00,CLR,CLR,0.00,WeatherDisplay:10.36,2013-04-16 20:23:00,
2013-04-16 16:28:00,62.3,51.6,30.11,ENE,60,2.3,2.3,68,0.00,CLR,CLR,0.00,WeatherDisplay:10.36,2013-04-16 20:28:00,
2013-04-16 16:33:00,62.7,52.0,30.11,ENE,69,2.3,2.3,68,0.00,CLR,CLR,0.00,WeatherDisplay:10.36,2013-04-16 20:33:00,
2013-04-16 16:38:00,63.1,52.0,30.11,East,79,2.3,2.3,67,0.00,CLR,CLR,0.00,WeatherDisplay:10.36,2013-04-16 20:38:00,
2013-04-16 16:43:00,63.2,51.6,30.11,ENE,67,3.5,3.5,66,0.00,CLR,CLR,0.00,WeatherDisplay:10.36,2013-04-16 20:43:00,
2013-04-16 16:48:00,63.4,51.8,30.11,ENE,65,2.3,0.0,66,0.00,CLR,CLR,0.00,WeatherDisplay:10.36,2013-04-16 20:48:00,
2013-04-16 16:54:00,63.7,52.1,30.10,ENE,66,1.2,0.0,66,0.00,CLR,CLR,0.00,WeatherDisplay:10.36,2013-04-16 20:54:00,
2013-04-16 16:59:00,64.2,52.2,30.10,ENE,65,2.3,0.0,65,0.00,CLR,CLR,0.00,WeatherDisplay:10.36,2013-04-16 20:59:00,
2013-04-16 17:04:00,64.3,51.9,30.09,ENE,63,2.3,0.0,64,0.00,CLR,CLR,0.00,WeatherDisplay:10.36,2013-04-16 21:04:00,
2013-04-16 17:09:00,63.9,51.9,30.09,ENE,62,2.0,2.0,65,0.00,CLR,CLR,0.00,WeatherDisplay:10.36,2013-04-16 21:09:00,
2013-04-16 17:14:00,63.2,51.2,30.09,ENE,62,0.0,0.0,65,0.00,CLR,CLR,0.00,WeatherDisplay:10.36,2013-04-16 21:14:00,
2013-04-16 17:20:00,63.5,51.9,30.09,ENE,63,3.5,3.5,66,0.00,CLR,CLR,0.00,WeatherDisplay:10.36,2013-04-16 21:20:00,
2013-04-16 17:25:00,63.9,51.9,30.08,ENE,62,3.5,3.5,65,0.00,CLR,CLR,0.00,WeatherDisplay:10.36,2013-04-16 21:25:00,
2013-04-16 17:30:00,64.2,52.2,30.08,ENE,63,1.0,3.0,65,0.00,CLR,CLR,0.00,WeatherDisplay:10.36,2013-04-16 21:30:00,
2013-04-16 17:35:00,64.5,52.5,30.08,ENE,63,1.2,1.2,65,0.00,CLR,CLR,0.00,WeatherDisplay:10.36,2013-04-16 21:35:00,
2013-04-16 17:40:00,64.5,52.0,30.08,ENE,64,3.5,3.5,64,0.00,CLR,CLR,0.00,WeatherDisplay:10.36,2013-04-16 21:40:00,
2013-04-16 17:45:00,64.2,52.2,30.08,ENE,64,1.2,1.2,65,0.00,CLR,CLR,0.00,WeatherDisplay:10.36,2013-04-16 21:45:00,
2013-04-16 17:50:00,63.9,51.9,30.07,ENE,64,2.3,0.0,65,0.00,CLR,CLR,0.00,WeatherDisplay:10.36,2013-04-16 21:50:00,
2013-04-16 17:56:00,63.9,52.3,30.06,ENE,64,1.2,1.2,66,0.00,CLR,CLR,0.00,WeatherDisplay:10.36,2013-04-16 21:56:00,
2013-04-16 18:01:00,64.0,52.0,30.06,ENE,64,1.2,0.0,65,0.00,CLR,CLR,0.00,WeatherDisplay:10.36,2013-04-16 22:01:00,
2013-04-16 18:06:00,64.2,52.2,30.05,ENE,58,0.0,0.0,65,0.00,CLR,CLR,0.00,WeatherDisplay:10.36,2013-04-16 22:06:00,
2013-04-16 18:11:00,64.2,52.2,30.05,ENE,70,0.0,0.0,65,0.00,CLR,CLR,0.00,WeatherDisplay:10.36,2013-04-16 22:11:00,
2013-04-16 18:16:00,64.2,52.2,30.05,SSE,165,2.3,0.0,65,0.00,CLR,CLR,0.00,WeatherDisplay:10.36,2013-04-16 22:16:00,
2013-04-16 18:21:00,64.2,52.2,30.04,SSE,161,1.2,0.0,65,0.00,CLR,CLR,0.00,WeatherDisplay:10.36,2013-04-16 22:21:00,
2013-04-16 18:26:00,64.2,52.2,30.04,SSE,153,0.0,0.0,65,0.00,CLR,CLR,0.00,WeatherDisplay:10.36,2013-04-16 22:26:00,
2013-04-16 18:32:00,64.0,52.0,30.03,SSE,153,1.2,1.2,65,0.00,CLR,CLR,0.00,WeatherDisplay:10.36,2013-04-16 22:32:00,
2013-04-16 18:37:00,64.0,52.0,30.03,SSE,153,0.0,0.0,65,0.00,CLR,CLR,0.00,WeatherDisplay:10.36,2013-04-16 22:37:00,
2013-04-16 18:42:00,63.9,52.3,30.03,SSE,153,0.0,0.0,66,0.00,CLR,CLR,0.00,WeatherDisplay:10.36,2013-04-16 22:42:00,
2013-04-16 18:47:00,63.9,51.9,30.03,SSE,153,0.0,0.0,65,0.00,CLR,CLR,0.00,WeatherDisplay:10.36,2013-04-16 22:47:00,
2013-04-16 18:52:00,63.9,51.9,30.03,SSE,153,0.0,0.1,65,0.00,CLR,CLR,0.00,WeatherDisplay:10.36,2013-04-16 22:52:00,
2013-04-16 18:57:00,63.9,51.9,30.03,SSE,153,0.0,0.1,65,0.00,CLR,CLR,0.00,WeatherDisplay:10.36,2013-04-16 22:57:00,
2013-04-16 19:02:00,63.7,52.1,30.04,SSE,153,0.0,0.0,66,0.00,CLR,CLR,0.00,WeatherDisplay:10.36,2013-04-16 23:02:00,
2013-04-16 19:07:00,63.7,52.1,30.04,SSE,153,0.0,0.0,66,0.00,CLR,CLR,0.00,WeatherDisplay:10.36,2013-04-16 23:07:00,
2013-04-16 19:13:00,63.7,52.1,30.03,SSE,153,0.0,0.0,66,0.00,CLR,CLR,0.00,WeatherDisplay:10.36,2013-04-16 23:13:00,
2013-04-16 19:18:00,63.7,52.1,30.03,SSE,153,0.0,0.0,66,0.00,CLR,CLR,0.00,WeatherDisplay:10.36,2013-04-16 23:18:00,
2013-04-16 19:23:00,63.5,51.9,30.03,SSE,153,1.2,0.0,66,0.00,CLR,CLR,0.00,WeatherDisplay:10.36,2013-04-16 23:23:00,
2013-04-16 19:28:00,63.4,52.2,30.03,SSE,153,0.0,0.0,67,0.00,CLR,CLR,0.00,WeatherDisplay:10.36,2013-04-16 23:28:00,
2013-04-16 19:34:00,63.2,52.1,30.03,SSE,153,0.0,0.0,67,0.00,CLR,CLR,0.00,WeatherDisplay:10.36,2013-04-16 23:34:00,
2013-04-16 19:39:00,63.1,52.0,30.03,SSE,153,0.0,0.0,67,0.00,CLR,CLR,0.00,WeatherDisplay:10.36,2013-04-16 23:39:00,
2013-04-16 19:44:00,62.9,51.8,30.03,SSE,153,0.0,0.0,67,0.00,CLR,CLR,0.00,WeatherDisplay:10.36,2013-04-16 23:44:00,
2013-04-16 19:49:00,62.9,52.2,30.03,SSE,153,4.6,4.6,68,0.00,CLR,CLR,0.00,WeatherDisplay:10.36,2013-04-16 23:49:00,
2013-04-16 19:54:00,63.1,52.4,30.03,SE,134,0.0,0.0,68,0.00,CLR,CLR,0.00,WeatherDisplay:10.36,2013-04-16 23:54:00,
2013-04-16 19:59:00,63.7,52.9,30.03,SSE,163,5.0,5.0,68,0.00,CLR,CLR,0.00,WeatherDisplay:10.36,2013-04-16 23:59:00,
2013-04-16 20:05:00,64.7,53.1,30.03,South,188,0.0,0.0,66,0.00,CLR,CLR,0.00,WeatherDisplay:10.36,2013-04-17 00:05:00,
2013-04-16 20:10:00,65.2,53.2,30.03,SSE,161,1.0,4.0,65,0.00,CLR,CLR,0.00,WeatherDisplay:10.36,2013-04-17 00:10:00,
2013-04-16 20:15:00,65.5,53.0,30.03,SSE,147,0.0,0.0,64,0.00,CLR,CLR,0.00,WeatherDisplay:10.36,2013-04-17 00:15:00,
2013-04-16 20:20:00,65.0,52.5,30.04,SSE,147,0.0,0.0,64,0.00,CLR,CLR,0.00,WeatherDisplay:10.36,2013-04-17 00:20:00,
2013-04-16 20:25:00,64.3,52.3,30.05,SSE,147,1.2,0.0,65,0.00,CLR,CLR,0.00,WeatherDisplay:10.36,2013-04-17 00:25:00,
2013-04-16 20:30:00,64.0,52.4,30.05,SSE,147,3.5,3.5,66,0.00,CLR,CLR,0.00,WeatherDisplay:10.36,2013-04-17 00:30:00,
2013-04-16 20:36:00,64.2,52.6,30.05,SSE,149,3.5,3.5,66,0.00,CLR,CLR,0.00,WeatherDisplay:10.36,2013-04-17 00:36:00,
2013-04-16 20:41:00,64.7,53.1,30.06,SSE,150,5.8,5.8,66,0.00,CLR,CLR,0.00,WeatherDisplay:10.36,2013-04-17 00:41:00,
2013-04-16 20:46:00,64.8,52.8,30.06,SE,141,2.3,2.3,65,0.00,CLR,CLR,0.00,WeatherDisplay:10.36,2013-04-17 00:46:00,
2013-04-16 20:51:00,65.0,52.9,30.06,ESE,114,2.3,3.0,65,0.00,CLR,CLR,0.00,WeatherDisplay:10.36,2013-04-17 00:51:00,
2013-04-16 20:56:00,65.0,52.9,30.06,SSE,160,2.3,2.3,65,0.00,CLR,CLR,0.00,WeatherDisplay:10.36,2013-04-17 00:56:00,
2013-04-16 21:01:00,64.8,52.8,30.06,SE,144,3.5,3.5,65,0.00,CLR,CLR,0.00,WeatherDisplay:10.36,2013-04-17 01:01:00,
2013-04-16 21:06:00,64.8,52.8,30.06,SE,142,3.5,0.0,65,0.00,CLR,CLR,0.00,WeatherDisplay:10.36,2013-04-17 01:06:00,
2013-04-16 21:11:00,64.7,52.7,30.06,SSE,148,3.5,3.5,65,0.00,CLR,CLR,0.00,WeatherDisplay:10.36,2013-04-17 01:11:00,
2013-04-16 21:17:00,64.5,52.5,30.06,SE,141,3.5,3.5,65,0.00,CLR,CLR,0.00,WeatherDisplay:10.36,2013-04-17 01:17:00,
2013-04-16 21:22:00,64.3,52.7,30.06,SE,137,3.5,3.5,66,0.00,CLR,CLR,0.00,WeatherDisplay:10.36,2013-04-17 01:22:00,
2013-04-16 21:27:00,64.2,52.6,30.06,SE,134,5.0,5.0,66,0.00,CLR,CLR,0.00,WeatherDisplay:10.36,2013-04-17 01:27:00,
2013-04-16 21:32:00,64.0,52.4,30.06,SE,142,0.0,0.0,66,0.00,CLR,CLR,0.00,WeatherDisplay:10.36,2013-04-17 01:32:00,
2013-04-16 21:37:00,63.9,52.3,30.06,SE,136,4.0,4.0,66,0.00,CLR,CLR,0.00,WeatherDisplay:10.36,2013-04-17 01:37:00,
2013-04-16 21:42:00,63.7,52.5,30.06,SE,143,3.5,3.5,67,0.00,CLR,CLR,0.00,WeatherDisplay:10.36,2013-04-17 01:42:00,
2013-04-16 21:47:00,63.5,52.3,30.06,SE,143,2.3,0.0,67,0.00,CLR,CLR,0.00,WeatherDisplay:10.36,2013-04-17 01:47:00,
2013-04-16 21:52:00,63.4,52.7,30.06,SSE,164,3.5,3.5,68,0.00,CLR,CLR,0.00,WeatherDisplay:10.36,2013-04-17 01:52:00,
2013-04-16 21:57:00,63.2,52.5,30.06,SSE,164,4.0,4.0,68,0.00,CLR,CLR,0.00,WeatherDisplay:10.36,2013-04-17 01:57:00,
2013-04-16 22:03:00,63.1,52.4,30.07,SSW,207,2.3,2.3,68,0.00,CLR,CLR,0.00,WeatherDisplay:10.36,2013-04-17 02:03:00,
2013-04-16 22:08:00,63.1,52.4,30.07,ESE,119,3.0,3.0,68,0.00,CLR,CLR,0.00,WeatherDisplay:10.36,2013-04-17 02:08:00,
2013-04-16 22:13:00,62.9,52.2,30.07,SE,135,3.5,3.5,68,0.00,CLR,CLR,0.00,WeatherDisplay:10.36,2013-04-17 02:13:00,
2013-04-16 22:18:00,62.9,52.2,30.07,SE,146,3.5,3.5,68,0.00,CLR,CLR,0.00,WeatherDisplay:10.36,2013-04-17 02:18:00,
2013-04-16 22:23:00,62.7,52.0,30.06,SE,136,3.5,3.5,68,0.00,CLR,CLR,0.00,WeatherDisplay:10.36,2013-04-17 02:23:00,
2013-04-16 22:28:00,62.7,52.4,30.06,SSE,153,3.5,0.0,69,0.00,CLR,CLR,0.00,WeatherDisplay:10.36,2013-04-17 02:28:00,
2013-04-16 22:33:00,62.6,52.3,30.06,SE,138,3.5,3.5,69,0.00,CLR,CLR,0.00,WeatherDisplay:10.36,2013-04-17 02:33:00,
2013-04-16 22:39:00,62.4,52.1,30.06,SE,140,0.0,0.0,69,0.00,CLR,CLR,0.00,WeatherDisplay:10.36,2013-04-17 02:39:00,
2013-04-16 22:44:00,62.1,52.2,30.06,South,184,2.3,2.3,70,0.00,CLR,CLR,0.00,WeatherDisplay:10.36,2013-04-17 02:44:00,
2013-04-16 22:49:00,62.0,52.1,30.06,SW,235,2.3,0.0,70,0.00,CLR,CLR,0.00,WeatherDisplay:10.36,2013-04-17 02:49:00,
2013-04-16 22:54:00,62.0,52.1,30.06,SE,131,3.0,3.0,70,0.00,CLR,CLR,0.00,WeatherDisplay:10.36,2013-04-17 02:54:00,
2013-04-16 22:59:00,61.8,51.9,30.05,SE,134,3.0,3.0,70,0.00,CLR,CLR,0.00,WeatherDisplay:10.36,2013-04-17 02:59:00,
2013-04-16 23:04:00,61.8,51.9,30.05,SE,127,3.5,3.5,70,0.00,CLR,CLR,0.00,WeatherDisplay:10.36,2013-04-17 03:04:00,
2013-04-16 23:09:00,61.5,51.6,30.04,SSE,162,1.0,1.0,70,0.00,CLR,CLR,0.00,WeatherDisplay:10.36,2013-04-17 03:09:00,
2013-04-16 23:14:00,61.3,51.8,30.04,SE,141,1.2,1.2,71,0.00,CLR,CLR,0.00,WeatherDisplay:10.36,2013-04-17 03:14:00,
2013-04-16 23:19:00,61.2,51.7,30.05,SE,142,0.0,0.0,71,0.00,CLR,CLR,0.00,WeatherDisplay:10.36,2013-04-17 03:19:00,
2013-04-16 23:24:00,61.0,51.9,30.06,SE,142,1.0,0.0,72,0.00,CLR,CLR,0.00,WeatherDisplay:10.36,2013-04-17 03:24:00,
2013-04-16 23:29:00,60.9,51.8,30.06,South,179,2.0,2.0,72,0.00,CLR,CLR,0.00,WeatherDisplay:10.36,2013-04-17 03:29:00,
2013-04-16 23:35:00,60.9,51.8,30.06,SW,227,2.0,2.2,72,0.00,CLR,CLR,0.00,WeatherDisplay:10.36,2013-04-17 03:35:00,
2013-04-16 23:40:00,60.7,51.6,30.05,SSW,203,0.0,3.0,72,0.00,CLR,CLR,0.00,WeatherDisplay:10.36,2013-04-17 03:40:00,
2013-04-16 23:45:00,60.9,51.8,30.05,SSE,148,2.0,2.0,72,0.00,CLR,CLR,0.00,WeatherDisplay:10.36,2013-04-17 03:45:00,
2013-04-16 23:50:00,60.9,51.8,30.05,South,172,3.0,3.0,72,0.00,CLR,CLR,0.00,WeatherDisplay:10.36,2013-04-17 03:50:00,
2013-04-16 23:55:00,60.9,51.8,30.05,ESE,103,3.5,3.5,72,0.00,CLR,CLR,0.00,WeatherDisplay:10.36,2013-04-17 03:55:00,